Regional Weather Roundup
Issued by NWS Kansas City/Pleasant Hill, MO

Home | Current Version | Previous Version | Text Only | Print | Product List | Glossary On
Versions: 1 2 3 4 5 6 7 8 9 10 11 12 13 14 15 16 17 18 19 20 21 22 23 24 25 26 27
000
ASUS43 KEAX 102210
RWREAX

WEATHER ROUNDUP FOR EASTERN KANSAS AND NORTHWEST MISSOURI
NATIONAL WEATHER SERVICE KANSAS CITY/PLEASANT HILL MO
400 PM CST SUN DEC 10 2017

KSZ040-057-103>105-MOZ028-029-037-043-102300-
...KANSAS CITY METROPOLITAN AREA...

CITY           SKY/WX    TMP DP  RH WIND       PRES   REMARKS
K.C. INTL      CLOUDY    56  24  29 NW12      30.12R
K.C. DOWNTOWN  CLEAR     57  25  29 W13       30.11R
LEES SUMMIT    CLEAR     56  25  30 W12       30.11R
OLATHE - IXD   CLEAR     56  23  27 NW13      30.13R
OLATHE - OJC   CLEAR     55  23  28 NW12      30.12R
LAWRENCE       CLEAR     58  23  26 W14       30.13R

$$

MOZ001>008-011>017-020>025-030>033-038>040-044>046-053-054-102300-
...NORTHERN AND CENTRAL MISSOURI...

CITY           SKY/WX    TMP DP  RH WIND       PRES   REMARKS
ST. JOSEPH     CLOUDY    53  26  35 NW9       30.12R
MOSBY          CLEAR     54  23  30 NW10      30.11S
WARRENSBURG    CLEAR     54  27  35 W8        30.10R
WHITEMAN AFB   PTCLDY    55  25  31 NW13      30.06R
CLINTON        CLEAR     55  27  33 W9        30.11S
SEDALIA        CLEAR     54  27  35 W9        30.11R
WARSAW         NOT AVBL
CHILLICOTHE      N/A     51  25  36 NW8       30.11R
KIRKSVILLE     CLEAR     49  26  41 W10       30.06R

$$

MOZ041-047>049-056>058-063>065-088>090-097-102300-
...EASTERN AND SOUTHERN MISSOURI...

CITY           SKY/WX    TMP DP  RH WIND       PRES   REMARKS
ST. LOUIS INTL MOCLDY    50  25  37 NW12      30.04R
SPIRIT OF STL  CLEAR     50  26  39 W8        30.04R
COLUMBIA       CLEAR     52  25  35 W12       30.07R
JEFFERSON CITY CLEAR     54  25  32 W12       30.08R
ROLLA          CLEAR     52  25  35 W12G21    30.07R
OSAGE BEACH    CLEAR     53  26  35 W7        30.11R
SPRINGFIELD    CLEAR     55  24  30 W15G21    30.12S
BRANSON        CLEAR     55  23  28 W9G23     30.14R
JOPLIN         CLEAR     58  23  26 W10       30.15F
WEST PLAINS    CLEAR     58  21  24 W9        30.08S

$$

IAZ060-094-KSZ022-034>040-054-083-096-NEZ052-066-093-102300-
...KANSAS...SOUTHEAST NEBRASKA AND IOWA...

CITY           SKY/WX    TMP DP  RH WIND       PRES   REMARKS
TOPEKA         CLEAR     60  23  24 W8        30.13R
MANHATTAN      CLEAR     64  19  17 NW7       30.15R
EMPORIA        CLEAR     61  20  20 NW12      30.15S
CHANUTE        CLEAR     61  22  22 W9        30.16S
WICHITA        MOSUNNY   66  17  15 NW14      30.19F
OMAHA          PTCLDY    52  25  35 NW13      30.10R
LINCOLN        CLEAR     58  19  22 NW8       30.13S
FALLS CITY     CLEAR     56  23  27 NW10      30.11R
LAMONI         CLEAR     50  25  37 NW15      30.07R
DES MOINES     PTCLDY    46  25  43 NW12      30.06R

$$





USA.gov is the U.S. government's official web portal to all federal, state and local government web resources and services.